Weather History for Lakeland Region, FL

Change the Weather History Date:

Sunday, July 28, 2013

  Actual Average Record
Temperature  
Mean Temperature 81 °F -  
Max Temperature 89 °F 88 °F 102 °F (2010)
Min Temperature 73 °F 71 °F 72 °F (1992)
Cooling Degree Days 16    
Growing Degree Days 31 (Base 50)    
Moisture  
Dew Point 72 °F    
Average Humidity 86    
Maximum Humidity 100    
Minimum Humidity 46    
Precipitation  
Precipitation 0.00 in - - ()
Sea Level Pressure  
Sea Level Pressure 30.01 in    
Wind  
Wind Speed 1 mph (SSW)    
Max Wind Speed 8 mph    
Max Gust Speed -    
Visibility 8 miles    
Events Rain    
Averages and records for this station are not official NWS values.
T = Trace of Precipitation, MM = Missing Value Source: NWS Daily Summary

Daily Weather History Graph

Daily Weather History Graph

Search for Another Location

Airport:

Trip Planner

Search our weather history database for the weather conditions in past years. The results will help you decide how hot, cold, wet, or windy it might be!

Date:

Astronomy

Jul. 28, 2013 Rise Set
Actual Time 6:48 AM EDT 8:20 PM EDT
Civil Twilight 6:23 AM EDT 8:45 PM EDT
Nautical Twilight 5:52 AM EDT 9:16 PM EDT
Astronomical Twilight 5:20 AM EDT 9:47 PM EDT
Moon No Moon Rise 12:49 PM EDT (7/28)
Length of Visible Light 14h 22m
Length of Day
13h 31m
Waning Gibbous, 61% of the Moon is Illuminated
Jul 28
Waning Gibbous
Jul 29
Last Quarter
Aug 6
New
Aug 14
First Quarter
Aug 20
Full

Hourly Weather History & Observations

Time (EDT) Temp. Heat Index Dew Point Humidity Pressure Visibility Wind Dir Wind Speed Gust Speed Precip Events Conditions
12:15 AM 77.0 °F - 69.8 °F 78% 30.01 in 10.0 mi Calm Calm - N/A   Clear
12:35 AM 77.0 °F - 69.8 °F 78% 30.00 in 10.0 mi Calm Calm - N/A   Clear
12:55 AM 77.0 °F - 71.6 °F 83% 30.00 in 10.0 mi Calm Calm - N/A   Clear
1:15 AM 75.2 °F - 71.6 °F 89% 30.00 in 10.0 mi Calm Calm - N/A   Clear
1:35 AM 75.2 °F - 71.6 °F 89% 30.00 in 10.0 mi Calm Calm - N/A   Scattered Clouds
1:55 AM 75.2 °F - 71.6 °F 89% 29.99 in 7.0 mi Calm Calm - N/A   Mostly Cloudy
2:15 AM 75.2 °F - 73.4 °F 94% 29.98 in 7.0 mi Calm Calm - N/A   Scattered Clouds
2:35 AM 75.2 °F - 73.4 °F 94% 29.98 in 7.0 mi Calm Calm - N/A   Scattered Clouds
2:55 AM 75.2 °F - 73.4 °F 94% 29.98 in 7.0 mi Calm Calm - N/A   Clear
3:15 AM 75.2 °F - 71.6 °F 89% 29.97 in 5.0 mi Calm Calm - N/A   Clear
3:35 AM 73.4 °F - 71.6 °F 94% 29.97 in 5.0 mi West 3.5 mph - N/A   Clear
3:55 AM 73.4 °F - 71.6 °F 94% 29.96 in 5.0 mi Calm Calm - N/A   Clear
4:15 AM 73.4 °F - 71.6 °F 94% 29.96 in 5.0 mi Calm Calm - N/A   Clear
4:35 AM 73.4 °F - 71.6 °F 94% 29.96 in 5.0 mi SSE 3.5 mph - N/A   Clear
4:55 AM 73.4 °F - 71.6 °F 94% 29.97 in 5.0 mi Calm Calm - N/A   Clear
5:15 AM 73.4 °F - 71.6 °F 94% 29.97 in 7.0 mi Calm Calm - N/A   Clear
5:35 AM 73.4 °F - 71.6 °F 94% 29.97 in 7.0 mi Calm Calm - N/A   Clear
5:50 AM 75.2 °F - 73.4 °F 94% 29.97 in 7.0 mi Calm Calm - N/A   Partly Cloudy
5:55 AM 73.4 °F - 71.6 °F 94% 29.98 in 5.0 mi Calm Calm - N/A   Clear
6:15 AM 73.4 °F - 71.6 °F 94% 29.98 in 4.0 mi SE 3.5 mph - N/A   Clear
6:35 AM 73.4 °F - 71.6 °F 94% 29.99 in 4.0 mi Calm Calm - N/A   Clear
6:50 AM 73.4 °F - 73.4 °F 100% 29.99 in 4.0 mi Calm Calm - N/A   Mostly Cloudy
7:50 AM 75.2 °F - 75.2 °F 100% 30.01 in 7.0 mi Variable 3.5 mph - N/A   Mostly Cloudy
8:50 AM 78.8 °F - 75.2 °F 89% 30.03 in 7.0 mi SW 3.5 mph - N/A   Mostly Cloudy
9:50 AM 82.4 °F 87.2 °F 71.6 °F 70% 30.03 in 10.0 mi SSW 3.5 mph - N/A   Mostly Cloudy
10:50 AM 84.2 °F 88.4 °F 69.8 °F 62% 30.04 in 12.0 mi Calm Calm - N/A   Scattered Clouds
11:50 AM 87.8 °F 91.4 °F 68.0 °F 52% 30.03 in 12.0 mi Calm Calm - N/A   Mostly Cloudy
12:50 PM 89.6 °F 92.2 °F 66.2 °F 46% 30.03 in 12.0 mi NW 3.5 mph - N/A   Mostly Cloudy
1:50 PM 87.8 °F 92.6 °F 69.8 °F 55% 30.02 in 12.0 mi NW 8.1 mph - N/A   Mostly Cloudy
3:56 PM 78.8 °F - 69.8 °F 74% 30.02 in 12.0 mi NW 3.5 mph - N/A   Mostly Cloudy
4:52 PM 80.6 °F 83.9 °F 69.8 °F 70% 30.04 in 12.0 mi SSW 5.8 mph - N/A   Overcast
5:53 PM 80.6 °F 83.9 °F 69.8 °F 70% 30.04 in 12.0 mi WSW 5.8 mph - N/A   Overcast
6:53 PM 78.8 °F - 71.6 °F 78% 30.05 in 12.0 mi Calm Calm - N/A Rain Light Rain
7:50 PM 77.0 °F - 73.4 °F 89% 30.04 in 12.0 mi Calm Calm - N/A   Mostly Cloudy
8:56 PM 78.8 °F - 73.4 °F 83% 30.06 in 12.0 mi ESE 3.5 mph - N/A   Mostly Cloudy
9:51 PM 75.2 °F - 73.4 °F 94% 30.07 in 12.0 mi SSE 3.5 mph - N/A   Mostly Cloudy
10:55 PM 73.4 °F - 73.4 °F 100% 30.08 in 7.0 mi Calm Calm - N/A   Clear
11:15 PM 73.4 °F - 73.4 °F 100% 30.09 in 10.0 mi SE 3.5 mph - N/A   Clear
11:35 PM 73.4 °F - 71.6 °F 94% 30.08 in 10.0 mi SSE 3.5 mph - N/A   Clear
11:55 PM 73.4 °F - 71.6 °F 94% 30.09 in 10.0 mi Calm Calm - N/A   Clear